Total_Precipitation_Accumulation
0.02 0.07 0.19 0.22 0.23 0.21 0.20 0.19 0.18 0.16 0.16 0.20 0.24 0.26 0.27 0.25 0.23 0.20 0.21 0.20 0.21 0.23 0.26 0.30 0.31 0.29 0.26 0.25 0.22 0.15 0.10 0.09 0.09 0.09 0.08 0.10 0.11 0.12 0.11 0.11 0.13 0.15 0.17
0.02 0.07 0.19 0.21 0.24 0.23 0.22 0.21 0.20 0.17 0.18 0.23 0.31 0.31 0.27 0.24 0.23 0.22 0.18 0.18 0.19 0.22 0.29 0.32 0.24 0.18 0.13 0.10 0.07 0.06 0.06 0.05 0.03 0.02 0.01 0.02 0.04 0.06 0.06 0.07 0.09 0.12 0.14
0.02 0.07 0.18 0.22 0.24 0.23 0.21 0.19 0.18 0.18 0.22 0.28 0.35 0.34 0.29 0.22 0.20 0.20 0.17 0.18 0.18 0.22 0.24 0.24 0.17 0.13 0.09 0.08 0.05 0.02 0.02 0.01 0.01 0.00 0.01 0.02 0.03 0.04 0.04 0.05 0.07 0.09 0.12
0.03 0.07 0.14 0.24 0.25 0.24 0.23 0.22 0.22 0.23 0.27 0.31 0.37 0.37 0.32 0.27 0.26 0.24 0.21 0.17 0.15 0.15 0.15 0.17 0.14 0.09 0.07 0.05 0.04 0.02 0.01 0.01 0.00 0.01 0.02 0.02 0.02 0.04 0.05 0.06 0.08 0.10 0.12
0.08 0.10 0.17 0.24 0.27 0.26 0.25 0.23 0.26 0.28 0.31 0.35 0.38 0.38 0.31 0.29 0.28 0.25 0.23 0.17 0.14 0.13 0.13 0.14 0.13 0.08 0.05 0.03 0.03 0.02 0.02 0.01 0.00 0.01 0.02 0.02 0.03 0.06 0.08 0.09 0.12 0.13 0.12
0.13 0.19 0.26 0.28 0.30 0.30 0.29 0.26 0.27 0.30 0.35 0.39 0.42 0.41 0.33 0.32 0.32 0.28 0.23 0.16 0.13 0.12 0.13 0.13 0.13 0.09 0.06 0.04 0.03 0.02 0.02 0.01 0.00 0.00 0.01 0.02 0.03 0.06 0.07 0.09 0.13 0.14 0.15
0.18 0.26 0.33 0.35 0.37 0.36 0.35 0.37 0.36 0.37 0.41 0.46 0.48 0.45 0.40 0.36 0.35 0.30 0.25 0.15 0.12 0.11 0.13 0.13 0.14 0.12 0.09 0.07 0.05 0.04 0.02 0.01 0.00 0.01 0.01 0.02 0.03 0.06 0.08 0.10 0.14 0.15 0.15
0.34 0.42 0.46 0.45 0.42 0.40 0.40 0.40 0.39 0.43 0.49 0.51 0.49 0.49 0.46 0.41 0.39 0.37 0.28 0.18 0.15 0.14 0.17 0.15 0.15 0.13 0.11 0.08 0.07 0.05 0.03 0.01 0.01 0.01 0.01 0.02 0.03 0.08 0.10 0.10 0.12 0.13 0.13
0.67 0.72 0.68 0.60 0.50 0.47 0.43 0.41 0.39 0.42 0.48 0.53 0.53 0.53 0.48 0.45 0.43 0.40 0.33 0.24 0.20 0.20 0.20 0.18 0.15 0.13 0.13 0.11 0.09 0.06 0.03 0.02 0.01 0.01 0.01 0.02 0.05 0.10 0.13 0.14 0.15 0.15 0.15
1.02 1.04 0.94 0.81 0.67 0.59 0.53 0.43 0.39 0.39 0.43 0.47 0.49 0.46 0.41 0.38 0.38 0.36 0.28 0.24 0.23 0.22 0.20 0.17 0.15 0.15 0.13 0.11 0.10 0.07 0.05 0.03 0.02 0.01 0.02 0.03 0.09 0.17 0.18 0.19 0.21 0.19 0.16
1.24 1.27 1.22 1.03 0.84 0.71 0.62 0.47 0.42 0.40 0.40 0.42 0.43 0.37 0.37 0.38 0.37 0.31 0.22 0.17 0.19 0.21 0.20 0.19 0.16 0.15 0.14 0.11 0.11 0.09 0.07 0.04 0.02 0.02 0.03 0.05 0.12 0.16 0.15 0.15 0.15 0.12 0.11
1.31 1.30 1.34 1.23 1.00 0.83 0.70 0.59 0.53 0.44 0.42 0.38 0.34 0.35 0.31 0.33 0.38 0.33 0.28 0.23 0.20 0.20 0.19 0.20 0.19 0.18 0.16 0.13 0.11 0.09 0.08 0.06 0.05 0.04 0.03 0.04 0.07 0.10 0.10 0.09 0.08 0.07 0.07
1.43 1.41 1.44 1.41 1.19 0.96 0.78 0.63 0.58 0.50 0.48 0.43 0.34 0.32 0.32 0.34 0.37 0.40 0.39 0.34 0.29 0.23 0.22 0.22 0.22 0.17 0.16 0.15 0.14 0.10 0.08 0.07 0.06 0.05 0.03 0.03 0.04 0.08 0.10 0.09 0.07 0.07 0.08
1.56 1.46 1.48 1.49 1.35 1.15 0.90 0.71 0.57 0.49 0.47 0.46 0.40 0.37 0.40 0.38 0.36 0.36 0.36 0.33 0.33 0.26 0.24 0.22 0.19 0.15 0.15 0.15 0.16 0.16 0.15 0.12 0.08 0.06 0.05 0.03 0.04 0.06 0.09 0.12 0.13 0.13 0.12
1.54 1.54 1.50 1.44 1.36 1.27 1.14 0.91 0.68 0.55 0.51 0.51 0.50 0.46 0.45 0.43 0.40 0.41 0.38 0.36 0.31 0.30 0.28 0.25 0.23 0.20 0.18 0.17 0.17 0.17 0.18 0.16 0.13 0.10 0.07 0.05 0.04 0.05 0.08 0.12 0.17 0.21 0.22
1.41 1.50 1.53 1.43 1.33 1.23 1.18 1.10 0.89 0.69 0.59 0.59 0.57 0.53 0.52 0.52 0.48 0.46 0.44 0.44 0.39 0.37 0.34 0.34 0.31 0.31 0.27 0.24 0.20 0.17 0.17 0.17 0.15 0.13 0.11 0.08 0.07 0.06 0.07 0.11 0.18 0.24 0.30
1.25 1.37 1.47 1.51 1.45 1.28 1.19 1.19 1.07 0.90 0.71 0.59 0.58 0.58 0.56 0.55 0.55 0.55 0.52 0.46 0.43 0.45 0.46 0.47 0.46 0.44 0.36 0.31 0.26 0.25 0.24 0.23 0.21 0.18 0.16 0.14 0.12 0.12 0.11 0.12 0.17 0.26 0.34
1.14 1.24 1.33 1.40 1.44 1.38 1.26 1.25 1.22 1.07 0.90 0.72 0.63 0.58 0.56 0.56 0.61 0.64 0.62 0.56 0.53 0.55 0.55 0.54 0.51 0.50 0.42 0.36 0.32 0.32 0.32 0.30 0.29 0.28 0.27 0.24 0.20 0.17 0.16 0.16 0.19 0.26 0.35
1.06 1.17 1.29 1.30 1.36 1.42 1.48 1.42 1.31 1.23 1.06 0.88 0.74 0.62 0.60 0.62 0.64 0.65 0.62 0.60 0.62 0.59 0.58 0.57 0.51 0.49 0.46 0.44 0.43 0.40 0.37 0.36 0.34 0.34 0.34 0.34 0.33 0.30 0.27 0.25 0.21 0.19 0.24
1.10 1.21 1.34 1.34 1.46 1.56 1.69 1.66 1.54 1.37 1.20 1.05 0.88 0.73 0.69 0.70 0.73 0.69 0.65 0.68 0.69 0.65 0.58 0.57 0.56 0.55 0.50 0.52 0.52 0.46 0.43 0.41 0.38 0.36 0.35 0.35 0.34 0.33 0.32 0.30 0.28 0.25 0.22
1.23 1.27 1.37 1.43 1.53 1.62 1.62 1.50 1.37 1.27 1.22 1.15 1.02 0.97 0.89 0.85 0.89 0.88 0.81 0.79 0.81 0.73 0.67 0.71 0.77 0.73 0.67 0.68 0.64 0.49 0.41 0.40 0.40 0.38 0.36 0.34 0.32 0.31 0.28 0.27 0.27 0.27 0.26
1.26 1.29 1.42 1.49 1.52 1.54 1.59 1.64 1.58 1.60 1.51 1.43 1.33 1.24 1.14 1.08 1.08 1.06 1.04 1.03 1.01 0.92 0.83 0.82 0.86 0.85 0.83 0.87 0.85 0.76 0.54 0.40 0.34 0.32 0.33 0.32 0.34 0.34 0.31 0.30 0.29 0.28 0.26
1.16 1.36 1.45 1.49 1.53 1.56 1.76 2.11 2.06 1.94 1.83 1.71 1.58 1.46 1.35 1.30 1.30 1.22 1.20 1.25 1.22 1.12 1.01 0.97 0.98 0.97 0.97 1.00 0.98 0.99 0.77 0.52 0.39 0.32 0.28 0.27 0.31 0.36 0.37 0.36 0.33 0.30 0.26
1.00 1.25 1.53 1.60 1.68 1.79 1.97 2.18 2.23 1.99 1.78 1.69 1.68 1.65 1.59 1.46 1.43 1.41 1.39 1.36 1.34 1.30 1.18 1.14 1.14 1.12 1.09 1.05 1.03 0.93 0.86 0.71 0.63 0.47 0.34 0.30 0.29 0.30 0.34 0.34 0.33 0.34 0.33
0.94 1.11 1.37 1.59 1.66 1.83 1.98 2.08 2.23 2.04 1.77 1.74 1.75 1.69 1.67 1.58 1.46 1.43 1.42 1.37 1.28 1.24 1.24 1.22 1.20 1.16 1.08 1.02 0.97 0.92 0.88 0.74 0.63 0.59 0.44 0.33 0.31 0.28 0.28 0.30 0.32 0.33 0.37
0.85 0.96 1.13 1.31 1.40 1.52 1.68 1.87 2.03 2.04 1.92 1.79 1.70 1.63 1.59 1.56 1.51 1.47 1.45 1.37 1.27 1.19 1.15 1.16 1.16 1.14 1.09 1.03 0.97 0.94 0.92 0.84 0.71 0.68 0.64 0.49 0.42 0.35 0.32 0.32 0.34 0.35 0.37